Weather History for Marion, SC

Change the Weather History Date:

Tuesday, February 11, 2014

  Actual Average (KFLO) Record (KFLO)
Temperature  
Mean Temperature 34 °F 48 °F  
Max Temperature 37 °F 59 °F 79 °F (1999)
Min Temperature 30 °F 37 °F 19 °F (1973)
Degree Days  
Heating Degree Days 32 17  
Month to date heating degree days 200  
Since 1 July heating degree days 1802  
Cooling Degree Days 0 0  
Month to date cooling degree days 0  
Year to date cooling degree days 2  
Moisture  
Dew Point 32 °F    
Average Humidity 94    
Maximum Humidity 100    
Minimum Humidity 86    
Precipitation  
Precipitation 0.26 in 0.09 in 1.22 in (1981)
Month to date precipitation 1.11  
Year to date precipitation 4.34  
Sea Level Pressure  
Sea Level Pressure 30.29 in    
Wind  
Wind Speed 7 mph (NE)    
Max Wind Speed 18 mph    
Max Gust Speed 23 mph    
Visibility 5 miles    
Events Rain , Snow    
T = Trace of Precipitation, MM = Missing Value Source: NWS Daily Summary

Daily Weather History Graph

Daily Weather History Graph

Search for Another Location

Airport:

Trip Planner

Search our weather history database for the weather conditions in past years. The results will help you decide how hot, cold, wet, or windy it might be!

Date:

Astronomy

Feb. 11, 2014 Rise Set
Actual Time 7:06 AM EST 5:57 PM EST
Civil Twilight 6:40 AM EST 6:23 PM EST
Nautical Twilight 6:10 AM EST 6:52 PM EST
Astronomical Twilight 5:41 AM EST 7:21 PM EST
Moon 3:19 PM EST (2/11) 4:38 AM EST (2/11)
Length of Visible Light 11h 42m
Length of Day
10h 51m
Waxing Gibbous, 90% of the Moon is Illuminated
Feb 11
Waxing Gibbous
Feb 14
Full
Feb 22
Last Quarter
Mar 1
New
Mar 8
First Quarter

Hourly Weather History & Observations

Time (EST) Temp. Windchill Dew Point Humidity Pressure Visibility Wind Dir Wind Speed Gust Speed Precip Events Conditions
12:15 AM 37.4 °F 30.8 °F 35.6 °F 93% 30.21 in 5.0 mi NNE 9.2 mph - N/A   Overcast
12:35 AM 37.4 °F 30.8 °F 35.6 °F 93% 30.21 in 5.0 mi NNE 9.2 mph - N/A   Light Drizzle
12:55 AM 37.4 °F 30.3 °F 35.6 °F 93% 30.22 in 5.0 mi NNE 10.4 mph - N/A   Overcast
1:15 AM 37.4 °F 29.8 °F 35.6 °F 93% 30.21 in 5.0 mi NNE 11.5 mph - N/A   Light Drizzle
1:35 AM 37.4 °F 30.8 °F 35.6 °F 93% 30.21 in 5.0 mi NNE 9.2 mph - N/A   Light Drizzle
1:55 AM 37.4 °F 31.4 °F 35.6 °F 93% 30.20 in 5.0 mi North 8.1 mph 11.5 mph N/A   Light Drizzle
2:15 AM 37.4 °F 30.8 °F 35.6 °F 93% 30.20 in 5.0 mi NNE 9.2 mph - N/A   Drizzle
2:35 AM 37.4 °F 30.8 °F 35.6 °F 93% 30.20 in 5.0 mi NNE 9.2 mph - N/A   Drizzle
3:15 AM 35.6 °F 29.9 °F 35.6 °F 100% 30.21 in 4.0 mi NE 6.9 mph - N/A   Drizzle
3:35 AM 35.6 °F 28.0 °F 35.6 °F 100% 30.20 in 5.0 mi NE 10.4 mph 16.1 mph N/A   Overcast
3:55 AM 35.6 °F 28.6 °F 35.6 °F 100% 30.20 in 7.0 mi NE 9.2 mph - N/A   Light Drizzle
4:15 AM 35.6 °F 28.0 °F 35.6 °F 100% 30.21 in 5.0 mi NE 10.4 mph 17.3 mph N/A Rain Light Rain
4:35 AM 35.6 °F 26.6 °F 35.6 °F 100% 30.22 in 5.0 mi NNE 13.8 mph - N/A Rain Light Rain
5:15 AM 35.6 °F 28.6 °F 35.6 °F 100% 30.23 in 5.0 mi NNE 9.2 mph - 0.01 in Rain Light Rain
5:35 AM 35.6 °F 28.0 °F 33.8 °F 93% 30.23 in 7.0 mi NNE 10.4 mph 16.1 mph 0.02 in Rain Light Rain
5:55 AM 35.6 °F 28.0 °F 33.8 °F 93% 30.24 in 7.0 mi NNE 10.4 mph - 0.02 in Rain Light Rain
6:15 AM 35.6 °F 27.5 °F 33.8 °F 93% 30.24 in 7.0 mi NNE 11.5 mph - 0.01 in Rain Light Rain
6:35 AM 33.8 °F 26.4 °F 33.8 °F 100% 30.25 in 7.0 mi NE 9.2 mph - 0.01 in Rain Rain
6:55 AM 33.8 °F 25.3 °F 33.8 °F 100% 30.25 in 7.0 mi NE 11.5 mph - 0.02 in   Drizzle
7:15 AM 33.8 °F 25.8 °F 32.0 °F 93% 30.26 in 7.0 mi NNE 10.4 mph 20.7 mph N/A Rain Rain
7:35 AM 33.8 °F 27.0 °F 32.0 °F 93% 30.27 in 5.0 mi NE 8.1 mph - N/A Rain Light Rain
7:55 AM 33.8 °F 24.8 °F 32.0 °F 93% 30.27 in 5.0 mi NNE 12.7 mph 16.1 mph 0.01 in Rain Rain
8:15 AM 33.8 °F 25.8 °F 32.0 °F 93% 30.28 in 5.0 mi NNE 10.4 mph 17.3 mph 0.01 in Rain Light Rain
8:35 AM 33.8 °F 26.4 °F 32.0 °F 93% 30.30 in 5.0 mi NNE 9.2 mph - 0.01 in Rain Light Rain
8:55 AM 33.8 °F 24.8 °F 32.0 °F 93% 30.28 in 5.0 mi NE 12.7 mph 17.3 mph 0.02 in Rain Rain
9:15 AM 33.8 °F 22.8 °F 32.0 °F 93% 30.28 in 4.0 mi NE 18.4 mph 23.0 mph N/A Rain Light Rain
9:35 AM 33.8 °F 23.2 °F 32.0 °F 93% 30.28 in 4.0 mi NE 17.3 mph 23.0 mph N/A Rain Light Rain
9:55 AM 33.8 °F 25.3 °F 32.0 °F 93% 30.29 in 4.0 mi NE 11.5 mph 23.0 mph 0.01 in Rain Light Rain
10:15 AM 33.8 °F 25.3 °F 32.0 °F 93% 30.30 in 4.0 mi NE 11.5 mph - 0.01 in Rain Light Rain
10:35 AM 33.8 °F 25.3 °F 32.0 °F 93% 30.31 in 5.0 mi NE 11.5 mph - 0.01 in Rain Light Rain
10:55 AM 32.0 °F 24.2 °F 32.0 °F 100% 30.31 in 4.0 mi NE 9.2 mph 18.4 mph 0.01 in Rain Light Rain
11:15 AM 33.8 °F 27.7 °F 32.0 °F 93% 30.31 in 3.0 mi NE 6.9 mph - 0.01 in Rain Light Rain
11:35 AM 32.0 °F - 32.0 °F 100% 30.31 in 4.0 mi Calm Calm - 0.01 in Rain Light Rain
11:55 AM 33.8 °F - 32.0 °F 93% 30.31 in 4.0 mi Calm Calm - 0.02 in Rain Light Rain
12:15 PM 33.8 °F - 32.0 °F 93% 30.31 in 5.0 mi Calm Calm - N/A Rain Light Rain
12:35 PM 32.0 °F - 32.0 °F 100% 30.31 in 4.0 mi Calm Calm - N/A Rain Light Rain
12:55 PM 32.0 °F - 32.0 °F 100% 30.29 in 2.5 mi Calm Calm - 0.03 in Rain Rain
1:15 PM 32.0 °F - 32.0 °F 100% 30.29 in 2.5 mi Calm Calm - 0.02 in Rain Rain
1:35 PM 32.0 °F - 32.0 °F 100% 30.29 in 3.0 mi Calm Calm - 0.03 in Rain Rain
1:55 PM 32.0 °F - 32.0 °F 100% 30.29 in 3.0 mi Calm Calm - 0.05 in Rain Rain
2:15 PM 32.0 °F - 32.0 °F 100% 30.29 in 2.5 mi Calm Calm - 0.02 in Rain Rain
2:35 PM 32.0 °F - 32.0 °F 100% 30.29 in 3.0 mi Calm Calm - 0.03 in Snow Light Snow
2:55 PM 32.0 °F - 32.0 °F 100% 30.29 in 3.0 mi Calm Calm - 0.05 in Rain Rain
3:15 PM 32.0 °F - 30.2 °F 93% 30.30 in 4.0 mi Calm Calm - 0.01 in Rain Light Rain
3:35 PM 32.0 °F - 30.2 °F 93% 30.30 in 4.0 mi Calm Calm - 0.02 in Rain Light Rain
3:55 PM 32.0 °F - 30.2 °F 93% 30.30 in 4.0 mi Calm Calm - 0.02 in Rain Light Rain
4:15 PM 32.0 °F - 30.2 °F 93% 30.30 in 4.0 mi Calm Calm - N/A Rain Rain
4:35 PM 32.0 °F - 30.2 °F 93% 30.30 in 4.0 mi Calm Calm - N/A Rain Light Rain
4:55 PM 32.0 °F - 30.2 °F 93% 30.30 in 4.0 mi Calm Calm - N/A Rain Light Rain
5:15 PM 32.0 °F - 30.2 °F 93% 30.30 in 4.0 mi Calm Calm - N/A   Light Drizzle
5:35 PM 32.0 °F - 30.2 °F 93% 30.32 in 5.0 mi Calm Calm - N/A   Light Drizzle
6:15 PM 32.0 °F - 30.2 °F 93% 30.32 in 5.0 mi Calm Calm - N/A   Overcast
6:35 PM 30.2 °F - 28.4 °F 93% 30.33 in 7.0 mi Calm Calm - N/A   Overcast
6:55 PM 30.2 °F - 28.4 °F 93% 30.33 in 7.0 mi Calm Calm - N/A   Overcast
7:15 PM 30.2 °F - 28.4 °F 93% 30.35 in 7.0 mi Calm Calm - N/A Rain Light Freezing Rain
7:35 PM 30.2 °F - 28.4 °F 93% 30.35 in 5.0 mi Calm Calm - N/A Snow Light Snow
7:55 PM 30.2 °F - 28.4 °F 93% 30.37 in 5.0 mi Calm Calm - N/A   Overcast
8:55 PM 30.2 °F - 28.4 °F 93% 30.37 in 5.0 mi Calm Calm - N/A   Overcast
9:15 PM 30.2 °F - 28.4 °F 93% 30.38 in 5.0 mi Calm Calm - N/A   Overcast
9:35 PM 30.2 °F - 28.4 °F 93% 30.38 in 7.0 mi Calm Calm - N/A   Overcast
9:55 PM 30.2 °F - 26.6 °F 86% 30.38 in 7.0 mi Calm Calm - N/A   Overcast
10:15 PM 30.2 °F - 26.6 °F 86% 30.38 in 7.0 mi Calm Calm - N/A   Overcast
10:35 PM 30.2 °F - 26.6 °F 86% 30.38 in 7.0 mi Calm Calm - N/A   Overcast
10:55 PM 30.2 °F - 26.6 °F 86% 30.37 in 7.0 mi Calm Calm - N/A   Overcast
11:35 PM 30.2 °F - 26.6 °F 86% 30.36 in 7.0 mi Calm Calm - N/A   Overcast
11:55 PM 30.2 °F - 26.6 °F 86% 30.36 in 7.0 mi Calm Calm - N/A   Overcast